Geely Xingzuo 03 zu 03 xing

operational
NORAD ID: 61013 Int'l Des: 2024-159 Owner: GEESP Country: CN Constellation: geesatcom
LEOCIRCULAR

About Geely Xingzuo 03 zu 03 xing

Description loading...

Live Position

Loading 3D Globe...

Upcoming Passes

Altitude History

Altitude vs Time

uPlot chart will show altitude changes over time

Two-Line Element Set

1 61013U 24159C 26061.62976823 .00003692 00000-0 46815-3 0 9997
2 61013 49.9911 216.2096 0005955 81.8786 278.2828 14.83761451 81011
Epoch: Mar 2, 2026 • Age: 29 hours

Current Status

Altitude 627.3 km
Velocity 7.54 km/s
Sub-Earth Point -25.75°S, 178.81°W
Launch Date Sep 5, 2024
Age 1.4 years
Type other

Technical Details

Classification Payload
Mass 130.00 kg
Dry Mass 130.00 kg
Total Mass 130.00 kg
Length 1.00 m
Diameter 0.50 m
Span 2.00 m
Shape Box + 2 pan
Manufacturer GWCG
Bus Type GPS100
Phase Status In Orbit
Owner/State GEESP/CN

Large Constellations

Loading constellations...